This is the latest recevied weather packets stored in our database for station/object VK4TOM-13. If no packets are shown the sender has not sent any weather packets the latest 10 day(s).
| Time | Temp. | Humidity | Pressure | Rain* | Wind** | Luminosity | Snow |
|---|---|---|---|---|---|---|---|
| 1777842392 | 20° C | 70% | 1017.3 hPa | 0 mm | - | - | - |
| 1777841791 | 20° C | 70% | 1017.2 hPa | 0 mm | - | - | - |
| 1777841190 | 19.44° C | 70% | 1017.3 hPa | 0 mm | - | - | - |
| 1777839987 | 19.44° C | 70% | 1016.9 hPa | 0 mm | - | - | - |
| 1777839386 | 19.44° C | 70% | 1016.9 hPa | 0 mm | - | - | - |
| 1777838785 | 19.44° C | 70% | 1016.5 hPa | 0 mm | - | - | - |
| 1777838184 | 19.44° C | 70% | 1016.4 hPa | 0 mm | - | - | - |
| 1777837583 | 20° C | 70% | 1016.4 hPa | 0 mm | - | - | - |
| 1777836982 | 20° C | 70% | 1016.3 hPa | 0 mm | - | - | - |
| 1777836381 | 20° C | 70% | 1016.2 hPa | 0 mm | - | - | - |
| 1777835780 | 20° C | 70% | 1016.2 hPa | 0 mm | - | - | - |
| 1777835179 | 20° C | 70% | 1016.2 hPa | 0 mm | - | - | - |
| 1777834578 | 20° C | 70% | 1016.1 hPa | 0 mm | - | - | - |
| 1777833977 | 20.56° C | 70% | 1016.1 hPa | 0 mm | - | - | - |
| 1777833375 | 20.56° C | 70% | 1015.9 hPa | 0 mm | - | - | - |
| 1777832774 | 20.56° C | 70% | 1016 hPa | 0 mm | - | - | - |
| 1777832173 | 21.11° C | 70% | 1016 hPa | 0 mm | - | - | - |
| 1777831573 | 21.11° C | 70% | 1016 hPa | 0 mm | - | - | - |
| 1777830971 | 21.11° C | 70% | 1016.1 hPa | 0 mm | - | - | - |
| 1777830370 | 21.67° C | 70% | 1016.1 hPa | 0 mm | - | - | - |
| 1777829769 | 21.67° C | 70% | 1016 hPa | 0 mm | - | - | - |
| 1777829168 | 22.22° C | 70% | 1016.1 hPa | 0 mm | - | - | - |
| 1777828567 | 22.22° C | 70% | 1016 hPa | 0 mm | - | - | - |
| 1777827966 | 22.22° C | 70% | 1016.1 hPa | 0 mm | - | - | - |
| 1777827366 | 22.22° C | 70% | 1016 hPa | 0 mm | - | - | - |
* Rain since midnight (hover to see other rain measurements)
** Current wind speed in m/s (hover to see current wind gust speed)